Wetterdaten: aktuell Dienstag, 16.07.2019 17:05
Datum Zeit Wetterhtte Helligkeit Boden -10cm Boden 5cm Temp S Luftfeuchte Luftdruck Regen Wind Richtung Richtung Sonnenschein UV Taupunkt Windchill Windben
16.07.2019 17:05 20,9 C 45,7 C 17,0 C 19,3 C 25,8 C 57 % 1016,9 hPa 0,0 l/m 12,5 km/h SW 229 5 min 2,6 UV-I 12,1 C 18,9 C 15,9 km/h
16.07.2019 17:00 20,6 C 47,4 C 16,9 C 19,2 C 25,3 C 59 % 1016,9 hPa 0,0 l/m 13,3 km/h N-NO 26 5 min 2,4 UV-I 12,3 C 18,4 C 21,2 km/h
16.07.2019 16:55 20,1 C 22,5 C 16,9 C 19,1 C 24,7 C 60 % 1016,6 hPa 0,0 l/m 13,3 km/h N-NW 341 0 min 1,3 UV-I 12,1 C 17,8 C 9,3 km/h
16.07.2019 16:50 20,1 C 16,2 C 16,9 C 19,0 C 24,9 C 60 % 1016,6 hPa 0,0 l/m 12,2 km/h N-NO 26 0 min 1,4 UV-I 12,1 C 18,1 C 7,2 km/h
16.07.2019 16:45 20,3 C 18,7 C 16,9 C 19,0 C 25,7 C 58 % 1016,6 hPa 0,0 l/m 11,9 km/h N-NW 341 0 min 1,7 UV-I 11,8 C 18,4 C 23,9 km/h
16.07.2019 16:40 20,4 C 22,2 C 16,9 C 19,0 C 25,7 C 58 % 1016,6 hPa 0,0 l/m 11,7 km/h NW 319 0 min 1,7 UV-I 11,9 C 18,6 C 14,3 km/h
16.07.2019 16:35 20,6 C 24,7 C 16,9 C 19,1 C 26,4 C 58 % 1016,8 hPa 0,0 l/m 9,3 km/h N 4 0 min 2,3 UV-I 12,0 C 19,5 C 9,0 km/h
16.07.2019 16:30 20,5 C 47,6 C 16,9 C 19,0 C 26,5 C 57 % 1016,8 hPa 0,0 l/m 10,1 km/h W 274 5 min 2,5 UV-I 11,7 C 19,2 C 11,4 km/h
16.07.2019 16:25 20,3 C 31,2 C 16,9 C 18,9 C 26,7 C 58 % 1016,8 hPa 0,0 l/m 12,2 km/h W-NW 296 5 min 2,4 UV-I 11,8 C 18,3 C 5,8 km/h
16.07.2019 16:20 20,4 C 19,0 C 16,9 C 18,9 C 28,0 C 58 % 1016,8 hPa 0,0 l/m 12,5 km/h N-NW 341 0 min 3,4 UV-I 11,9 C 18,4 C 15,9 km/h
16.07.2019 16:15 20,1 C 47,7 C 16,9 C 18,7 C 27,6 C 58 % 1016,9 hPa 0,0 l/m 11,7 km/h N-NO 26 5 min 3,5 UV-I 11,6 C 18,2 C 16,2 km/h
16.07.2019 16:10 19,9 C 42,2 C 16,9 C 18,5 C 27,6 C 59 % 1016,9 hPa 0,0 l/m 12,2 km/h N-NO 26 5 min 3,0 UV-I 11,6 C 17,9 C 18,6 km/h
16.07.2019 16:05 19,7 C 49,4 C 16,9 C 18,5 C 26,9 C 59 % 1016,9 hPa 0,0 l/m 11,9 km/h N-NO 26 5 min 2,9 UV-I 11,5 C 17,7 C 14,1 km/h
16.07.2019 16:00 19,8 C 15,2 C 16,9 C 18,3 C 27,7 C 59 % 1016,9 hPa 0,0 l/m 13,0 km/h N-NW 341 0 min 3,1 UV-I 11,6 C 17,5 C 23,6 km/h
16.07.2019 15:55 19,8 C 16,9 C 16,9 C 18,5 C 27,9 C 59 % 1016,9 hPa 0,0 l/m 11,7 km/h NO 49 0 min 3,4 UV-I 11,6 C 17,9 C 17,8 km/h
16.07.2019 15:50 19,8 C 47,3 C 16,9 C 18,3 C 27,4 C 59 % 1016,9 hPa 0,0 l/m 10,4 km/h N 4 5 min 3,6 UV-I 11,6 C 18,3 C 11,2 km/h
16.07.2019 15:45 19,6 C 48,8 C 16,9 C 18,3 C 26,6 C 59 % 1016,9 hPa 0,0 l/m 11,9 km/h N-NW 341 5 min 3,2 UV-I 11,4 C 17,6 C 10,1 km/h
16.07.2019 15:40 19,6 C 30,7 C 16,9 C 18,3 C 28,5 C 59 % 1016,9 hPa 0,0 l/m 12,5 km/h W 274 5 min 4,2 UV-I 11,4 C 17,4 C 12,7 km/h
16.07.2019 15:35 19,2 C 48,6 C 16,9 C 18,2 C 26,5 C 59 % 1016,8 hPa 0,0 l/m 12,2 km/h N-NO 26 5 min 3,5 UV-I 11,0 C 17,0 C 22,0 km/h
16.07.2019 15:30 19,3 C 21,3 C 16,9 C 18,1 C 26,5 C 59 % 1016,8 hPa 0,0 l/m 12,2 km/h NW 319 0 min 3,8 UV-I 11,1 C 17,2 C 19,1 km/h
16.07.2019 15:25 19,3 C 45,7 C 16,9 C 18,1 C 26,2 C 60 % 1016,8 hPa 0,0 l/m 12,5 km/h W-SW 251 5 min 3,4 UV-I 11,3 C 17,1 C 16,7 km/h
16.07.2019 15:20 18,8 C 18,6 C 16,9 C 18,0 C 27,3 C 60 % 1016,8 hPa 0,0 l/m 10,6 km/h N-NO 26 0 min 3,9 UV-I 10,9 C 17,1 C 12,7 km/h
16.07.2019 15:15 19,0 C 42,3 C 16,8 C 18,1 C 26,2 C 60 % 1017,0 hPa 0,0 l/m 8,5 km/h N 4 5 min 3,4 UV-I 11,1 C 18,1 C 10,4 km/h
16.07.2019 15:10 19,0 C 50,0 C 16,8 C 18,0 C 25,7 C 61 % 1017,0 hPa 0,0 l/m 8,0 km/h N-NO 26 5 min 3,0 UV-I 11,3 C 18,3 C 9,8 km/h
16.07.2019 15:05 19,2 C 22,0 C 16,8 C 18,1 C 26,1 C 60 % 1017,0 hPa 0,0 l/m 8,2 km/h N-NW 341 0 min 3,5 UV-I 11,2 C 18,4 C 6,9 km/h
16.07.2019 15:00 19,3 C 25,5 C 16,8 C 18,0 C 25,8 C 60 % 1017,0 hPa 0,0 l/m 6,9 km/h W 274 5 min 3,6 UV-I 11,3 C 19,1 C 8,5 km/h
16.07.2019 14:55 19,4 C 29,3 C 16,7 C 18,1 C 26,9 C 60 % 1017,1 hPa 0,0 l/m 6,9 km/h W-SW 251 5 min 4,5 UV-I 11,4 C 19,2 C 15,1 km/h
16.07.2019 14:50 19,0 C 52,7 C 16,8 C 17,9 C 27,1 C 61 % 1017,1 hPa 0,0 l/m 5,6 km/h SO 139 5 min 4,5 UV-I 11,3 C 19,0 C 5,3 km/h
16.07.2019 14:45 18,5 C 30,8 C 16,7 C 17,8 C 27,1 C 63 % 1017,1 hPa 0,0 l/m 8,2 km/h N-NW 341 5 min 4,9 UV-I 11,3 C 17,7 C 12,5 km/h
16.07.2019 14:40 18,1 C 56,0 C 16,7 C 17,8 C 26,6 C 63 % 1017,1 hPa 0,0 l/m 9,0 km/h W 274 5 min 4,1 UV-I 10,9 C 16,9 C 7,4 km/h
16.07.2019 14:35 18,1 C 32,3 C 16,6 C 17,8 C 24,3 C 63 % 1017,4 hPa 0,0 l/m 9,3 km/h N-NW 341 5 min 3,4 UV-I 10,9 C 16,8 C 15,4 km/h
16.07.2019 14:30 18,0 C 26,2 C 16,6 C 17,8 C 24,5 C 64 % 1017,4 hPa 0,0 l/m 6,9 km/h O-NO 71 5 min 4,2 UV-I 11,1 C 17,8 C 15,9 km/h
16.07.2019 14:25 17,8 C 35,9 C 16,5 C 17,6 C 23,7 C 64 % 1017,4 hPa 0,0 l/m 5,6 km/h N-NW 341 5 min 3,8 UV-I 10,9 C 17,8 C 9,8 km/h
16.07.2019 14:20 17,7 C 28,2 C 16,5 C 17,6 C 22,5 C 64 % 1017,4 hPa 0,0 l/m 6,9 km/h N 4 5 min 3,2 UV-I 10,8 C 17,5 C 3,5 km/h
16.07.2019 14:15 17,7 C 26,8 C 16,4 C 17,7 C 22,6 C 64 % 1017,5 hPa 0,0 l/m 8,2 km/h N-NO 26 5 min 3,6 UV-I 10,8 C 16,8 C 6,1 km/h
16.07.2019 14:10 17,6 C 27,9 C 16,3 C 17,5 C 22,2 C 64 % 1017,5 hPa 0,0 l/m 8,0 km/h SW 229 5 min 3,6 UV-I 10,7 C 16,8 C 9,0 km/h
16.07.2019 14:05 17,5 C 29,5 C 16,3 C 17,5 C 22,9 C 65 % 1017,5 hPa 0,0 l/m 5,3 km/h N-NW 341 5 min 4,1 UV-I 10,8 C 17,5 C 5,3 km/h
16.07.2019 14:00 17,3 C 32,3 C 16,2 C 17,3 C 22,3 C 66 % 1017,5 hPa 0,0 l/m 6,6 km/h NW 319 5 min 4,1 UV-I 10,9 C 17,2 C 6,6 km/h
16.07.2019 13:55 17,1 C 34,1 C 16,1 C 17,1 C 21,8 C 66 % 1017,8 hPa 0,0 l/m 8,8 km/h W-SW 251 5 min 3,2 UV-I 10,7 C 15,9 C 15,4 km/h
16.07.2019 13:50 16,9 C 28,4 C 16,1 C 17,1 C 21,5 C 67 % 1017,8 hPa 0,0 l/m 6,6 km/h W-NW 296 5 min 3,2 UV-I 10,7 C 16,8 C 8,5 km/h
16.07.2019 13:45 16,6 C 25,5 C 16,0 C 16,9 C 21,1 C 67 % 1017,8 hPa 0,0 l/m 7,2 km/h NW 319 5 min 3,3 UV-I 10,4 C 16,2 C 9,8 km/h
_ Min-Zeit 05:55 05:10 09:55 05:35 02:48 17:05 16:55 - 05:45 - - - 07:55 02:18 09:40 11:50
Minimum _ 12,5 C -22,3 C 15,4 C 14,2 C 11,6 C 57 % 1016,6 hPa - 0,0 km/h - - - 0,0 UV-I 8,8 C 10,4 C 0,0 km/h
_ Max-Zeit 17:05 14:40 17:05 17:05 15:40 06:10 12:55 17:05 17:00 - - 17:05 14:45 17:00 16:35 09:40
Maximum _ 20,9 C 56,0 C 17,0 C 19,3 C 28,5 C 80 % 1018,2 hPa 0,0 l/m 13,3 km/h
N-NO
- - 5 min 4,9 UV-I 12,3 C 19,5 C 28,9 km/h
W-NW
Durchschnitt _ 14,8 C -0,0 C 15,8 C 15,6 C 16,3 C 72 % 1017,4 hPa #0,0 l/m 6,1 km/h NW - #2:45 h 1,7 UV-I 9,8 C 14,0 C 7,9 km/h